DW1437 Weather Reports


time (UTC)temp
C
wind
direction
speed
KPH
gust
KPH
rain 1hr
cm
rain 24hr
cm
rain mn
cm
humidity
%
barometer
mb
20260903111032 22 128 6.4 22.5 0.00 0.08 0.00 73 1016.1
20260903104948 21 192 4.8 17.7 0.00 0.08 0.00 75 1016.3
20260903103929 21 275 4.8 14.5 0.00 0.08 0.00 75 1016.2
20260903102911 21 261 4.8 19.3 0.00 0.08 0.00 76 1016.0
20260903101856 21 219 6.4 19.3 0.00 0.08 0.00 77 1016.1
20260903100914 21 295 3.2 14.5 0.00 0.08 0.00 77 1016.1
20260903094823 20 267 3.2 16.1 0.00 0.08 0.00 80 1016.3
20260903093824 20 247 1.6 11.3 0.00 0.08 0.00 81 1016.3
20260903092845 20 215 3.2 11.3 0.00 0.08 0.00 82 1016.5
20260903091820 19 280 1.6 11.3 0.00 0.08 0.00 82 1016.4
20260903090809 19 262 1.6 9.7 0.00 0.08 0.00 83 1016.4
20260903085742 19 219 0.0 3.2 0.00 0.08 0.00 82 1016.4
20260903082435 18 277 4.8 14.5 0.00 0.08 0.00 84 1016.2
20260903081440 18 268 4.8 14.5 0.00 0.10 0.00 86 1016.2
20260903074055 17 278 1.6 6.4 0.00 0.10 0.00 90 1016.3
20260903073051 17 255 0.0 6.4 0.00 0.10 0.00 90 1016.1
20260903064635 16 254 0.0 0.0 0.00 0.13 0.00 92 1015.6
20260903063633 16 125 0.0 0.0 0.00 0.13 0.00 92 1015.5
20260903062610 16 125 0.0 0.0 0.00 0.15 0.00 92 1015.4
20260903061538 16 125 0.0 0.0 0.00 0.15 0.00 91 1015.4
20260903060520 16 125 0.0 0.0 0.00 0.18 0.00 91 1015.2
20260903055446 16 125 0.0 3.2 0.00 0.18 0.00 90 1015.0
20260903054453 16 51 0.0 6.4 0.00 0.18 0.00 89 1014.9
20260903053447 16 213 0.0 4.8 0.00 0.18 0.00 89 1014.7
20260903052417 16 259 3.2 8.0 0.00 0.18 0.00 89 1014.7
20260903051356 16 292 0.0 4.8 0.00 0.18 0.00 90 1014.8
20260903043007 17 39 0.0 3.2 0.00 0.18 0.00 91 1014.7
20260903042028 17 150 0.0 3.2 0.00 0.18 0.00 91 1014.7
20260903040956 17 234 0.0 3.2 0.00 0.18 0.00 91 1014.7
20260903035930 17 94 0.0 0.0 0.00 0.18 0.00 91 1014.7
20260903034857 17 314 0.0 0.0 0.00 0.18 0.00 91 1014.4
20260903033828 17 240 1.6 8.0 0.00 0.18 0.00 91 1014.5
20260903032825 17 231 0.0 6.4 0.00 0.18 0.00 90 1014.6
20260903031834 17 274 0.0 0.0 0.00 0.18 0.00 90 1014.5
20260903030811 17 71 1.6 9.7 0.00 0.18 0.00 89 1014.4
20260903025743 18 304 0.0 9.7 0.00 0.18 0.00 89 1014.3
20260903024728 17 246 0.0 6.4 0.00 0.18 0.00 88 1014.3
20260903023719 17 134 0.0 9.7 0.00 0.18 0.00 88 1014.3
20260903022724 17 93 0.0 6.4 0.00 0.18 0.00 88 1014.1
20260903021705 18 296 0.0 9.7 0.00 0.18 0.00 88 1014.5
20260903020638 18 163 4.8 12.9 0.00 0.18 0.00 89 1014.5
20260903015626 18 279 1.6 16.1 0.00 0.18 0.00 89 1014.2
20260903014640 17 294 3.2 16.1 0.00 0.18 0.00 90 1014.5
20260903013615 17 157 1.6 11.3 0.00 0.18 0.00 91 1014.4
20260903012617 17 246 0.0 11.3 0.00 0.18 0.00 91 1014.4
20260903011623 17 223 1.6 4.8 0.00 0.18 0.00 91 1014.3
20260903010642 17 240 1.6 8.0 0.00 0.18 0.00 91 1014.2
20260903004529 17 258 3.2 9.7 0.00 0.18 0.00 92 1014.5
20260903003502 18 234 8.0 19.3 0.00 0.18 0.00 92 1014.5
20260903001319 18 284 4.8 17.7 0.00 0.18 0.00 91 1014.4
20260903000310 18 253 8.0 19.3 0.00 0.18 0.00 91 1014.4
20260902235314 18 292 9.7 19.3 0.00 0.18 0.00 91 1014.4
20260902230806 18 261 1.6 12.9 0.00 0.18 0.00 89 1014.7
20260902225739 18 246 1.6 12.9 0.00 0.18 0.18 89 1014.7
20260902223635 18 192 4.8 12.9 0.00 0.18 0.18 89 1014.7
20260902222601 18 228 1.6 11.3 0.00 0.18 0.18 89 1014.7
20260902221607 18 334 1.6 6.4 0.00 0.18 0.18 89 1014.8
20260902220534 18 163 0.0 3.2 0.00 0.18 0.18 89 1014.8
20260902215555 18 97 0.0 0.0 0.00 0.18 0.18 89 1014.8
20260902214534 18 302 0.0 4.8 0.00 0.18 0.18 89 1014.9
20260902213518 18 213 0.0 3.2 0.00 0.18 0.18 88 1014.7
20260902212457 18 127 0.0 3.2 0.00 0.18 0.18 88 1014.8
20260902211441 18 189 0.0 4.8 0.00 0.18 0.18 88 1014.7
20260902210445 18 294 0.0 0.0 0.00 0.18 0.18 87 1014.9
20260902205437 18 294 0.0 3.2 0.00 0.18 0.18 87 1014.9
20260902204414 18 290 1.6 8.0 0.00 0.18 0.18 87 1014.9
20260902203359 18 267 1.6 8.0 0.00 0.18 0.18 86 1014.6
20260902201217 18 285 4.8 11.3 0.00 0.18 0.18 86 1014.5
20260902200219 18 254 3.2 11.3 0.00 0.18 0.18 86 1014.7
20260902195229 18 240 1.6 6.4 0.00 0.18 0.18 85 1014.6
20260902193045 19 256 3.2 17.7 0.00 0.18 0.18 84 1014.4
20260902192015 19 255 6.4 17.7 0.00 0.18 0.18 84 1014.3
20260902190942 19 240 3.2 11.3 0.00 0.18 0.18 84 1014.4
20260902185952 19 283 3.2 11.3 0.00 0.18 0.18 84 1014.4
20260902184949 20 285 3.2 11.3 0.00 0.18 0.18 84 1014.1
20260902184002 20 268 6.4 25.7 0.00 0.18 0.18 83 1014.1
20260902183016 20 171 4.8 25.7 0.00 0.18 0.18 84 1014.2
20260902182011 20 259 4.8 17.7 0.00 0.18 0.18 84 1014.0
20260902180956 20 288 4.8 17.7 0.00 0.18 0.18 86 1014.0
20260902180004 20 263 6.4 14.5 0.00 0.18 0.18 87 1014.0
20260902174935 20 234 6.4 14.5 0.00 0.18 0.18 88 1014.0
20260902172845 20 256 6.4 12.9 0.00 0.18 0.18 89 1013.8
20260902171835 20 210 6.4 17.7 0.00 0.18 0.18 89 1013.7
20260902170851 20 256 4.8 17.7 0.00 0.18 0.18 89 1013.7
20260902165817 20 285 4.8 12.9 0.00 0.18 0.18 89 1013.8
20260902164813 20 269 6.4 12.9 0.00 0.18 0.18 89 1013.8
20260902163801 20 277 6.4 12.9 0.00 0.18 0.18 89 1014.0
20260902161621 20 198 6.4 17.7 0.00 0.18 0.18 90 1014.0
20260902160610 20 225 8.0 19.3 0.00 0.18 0.18 90 1013.9
20260902155626 20 207 8.0 20.9 0.00 0.18 0.18 91 1013.8
20260902154611 20 252 9.7 20.9 0.00 0.18 0.18 92 1013.8
20260902153555 19 313 8.0 20.9 0.00 0.18 0.18 94 1013.8
20260902152601 19 317 6.4 19.3 0.00 0.18 0.18 95 1013.8
20260902151554 19 284 6.4 19.3 0.00 0.18 0.18 95 1013.8
20260902150606 19 312 6.4 14.5 0.00 0.18 0.18 96 1013.8
20260902145625 18 36 3.2 12.9 0.00 0.18 0.18 96 1013.9
20260902144642 18 339 3.2 14.5 0.00 0.18 0.18 96 1014.1
20260902142512 18 236 3.2 11.3 0.00 0.18 0.18 96 1014.1
20260902141458 18 316 1.6 6.4 0.00 0.18 0.18 96 1014.2
20260902140450 18 76 1.6 11.3 0.00 0.18 0.18 96 1014.3
20260902135430 18 282 1.6 11.3 0.00 0.18 0.18 96 1014.3
20260902134428 17 15 1.6 9.7 0.08 0.18 0.18 95 1014.3
20260902133448 17 115 1.6 9.7 0.08 0.18 0.18 95 1014.5
20260902132420 17 308 1.6 9.7 0.00 0.18 0.18 95 1014.7
20260902131346 17 30 1.6 9.7 0.00 0.15 0.15 95 1014.8
20260902125134 17 97 1.6 11.3 0.00 0.15 0.15 95 1014.9
20260902124111 17 300 1.6 11.3 0.00 0.15 0.15 95 1014.9
20260902123101 17 41 1.6 19.3 0.00 0.15 0.15 94 1015.1
20260902122059 17 64 3.2 19.3 0.00 0.15 0.15 94 1015.3
20260902121058 17 239 1.6 11.3 0.00 0.13 0.13 94 1015.4
20260902120030 17 100 1.6 11.3 0.00 0.13 0.13 95 1015.4
20260902115049 17 355 1.6 11.3 0.00 0.13 0.13 95 1015.5
20260902112958 16 128 1.6 11.3 0.00 0.10 0.10 94 1015.7
20260902112018 17 16 1.6 11.3 0.00 0.10 0.10 94 1015.9